[[{"header":{"parameterUnit":"m.s-1","parameterCategory":1,"la1":30.2991,"la2":30.254,"lo1":-89.0895,"lo2":-89.0444,"dy":0.0017,"dx":0.0017,"nx":28,"ny":28,"refTime":"2025-03-30T03:00:00:Z","depth":0,"parameterNumber":2,"parameterNumberName":"U-component_of_WINDS"},"data":[0,0,0,0,0,0,0,0,0,0,0,0,0,0,0,0,0,0,0,0,0,0,0,0,0,0,0,0,0,0,0,0,0,0,0,0,0,0,0,0,0,0,0,0,0,0,0,0,0,0,0,0,0,0,0,0,0,0,1.4489,1.4489,0,1.4545,1.4546,1.4547,1.4528,1.4526,1.4525,1.4524,1.4586,1.4589,1.4592,0,0,0,0,0,0,0,0,0,0,0,0,0,1.4367,1.437,1.4488,1.4489,1.449,1.4545,1.4546,1.4547,1.4528,1.4526,1.4525,1.4523,1.4585,1.4589,1.4592,0,0,0,0,0,0,0,0,0,0,0,0,0,1.4422,1.437,1.4488,1.4487,1.4487,1.4545,1.4546,1.4547,1.4528,1.4526,1.4525,1.4523,1.4584,1.4588,1.4593,1.4656,0,0,1.4605,1.4607,0,0,0,0,0,0,0,0,1.4419,1.4426,1.4487,1.4487,1.4488,1.4527,1.4526,1.4584,1.4529,1.4513,1.4524,1.4522,1.4568,1.4574,1.4589,1.4659,1.4662,1.4606,1.4608,1.461,1.4611,0,0,0,0,0,0,0,1.4415,1.4424,1.4511,1.4487,1.4488,1.4485,1.4491,1.4537,1.4551,1.4514,1.4513,1.452,1.4569,1.4585,1.459,1.4663,1.4606,1.4609,1.4612,1.4614,1.4789,1.4791,0,0,0,0,0,0,1.441,1.4421,1.4509,1.4513,1.4448,1.4489,1.4495,1.4517,1.455,1.4553,1.4521,1.4519,1.4578,1.4585,1.4592,1.467,1.461,1.4614,1.4617,1.4787,1.479,1.4792,0,0,0,0,0,0,1.4408,1.4418,1.4507,1.4466,1.4477,1.4493,1.4517,1.4519,1.4535,1.4555,1.4558,1.4535,1.4577,1.4586,1.464,1.4671,1.4616,1.462,1.4785,1.4788,1.4791,1.4824,0,0,0,0,0,0,1.4404,1.4418,1.4441,1.4467,1.448,1.4553,1.4519,1.4521,1.4542,1.4539,1.4569,1.4572,1.4576,1.4634,1.4645,1.4676,1.4623,1.4782,1.4786,1.479,1.4821,1.4828,1.4835,0,0,0,0,0,1.44,1.4449,1.4442,1.4453,1.4509,1.4555,1.4562,1.4565,1.4544,1.4569,1.4582,1.4571,1.4666,1.464,1.4651,1.4685,1.478,1.4785,1.4789,1.4817,1.4827,1.4835,0,0,0,0,0,0,1.4427,1.4452,1.4445,1.4503,1.4527,1.4551,1.4582,1.4575,1.4605,1.4602,1.4605,1.4612,1.4668,1.4682,1.4652,1.4749,1.472,1.4728,1.4738,1.4747,1.4754,1.475,1.4627,0,0,0,0,0,1.4439,1.4473,1.4494,1.4543,1.4555,1.4567,1.4587,1.4587,1.4612,1.4622,1.4639,1.4665,1.4701,1.4725,1.4758,1.4822,1.4829,1.4851,1.4858,1.4864,1.4871,1.4907,1.4917,1.4808,1.4808,1.4807,0,0,1.4466,1.4484,1.4505,1.4549,1.4568,1.4604,1.4575,1.4615,1.4642,1.4629,1.468,1.4694,1.4723,1.4783,1.481,1.4796,1.4903,1.487,1.4875,1.4878,1.4913,1.4923,1.4932,1.4811,1.481,1.481,0,0,1.4533,1.4549,1.4593,1.4612,1.4639,1.4646,1.4657,1.4683,1.4691,1.4743,1.4734,1.4767,1.4828,1.485,1.4869,1.4944,1.4936,1.4955,1.4993,1.5028,1.5037,1.5045,1.5073,1.5083,1.4962,1.4962,1.4962,0,1.4563,1.4616,1.4616,1.4657,1.4677,1.4665,1.471,1.4729,1.4767,1.4781,1.4765,1.4842,1.4861,1.4926,1.4944,1.496,1.4973,1.4952,1.5035,1.5043,1.505,1.5077,1.5088,1.4964,1.4964,1.4964,1.4963,0,1.4652,1.4689,1.4721,1.4757,1.478,1.4823,1.4831,1.4855,1.4853,1.4863,1.4917,1.4939,1.4977,1.4993,1.4992,1.5058,1.5049,1.5034,1.5006,1.5063,1.5088,1.5099,1.4967,1.4966,1.4966,1.4965,0,0,1.4737,1.4773,1.4785,1.4801,1.4831,1.486,1.4903,1.4939,1.4961,1.4988,1.5024,1.5076,1.5063,1.5085,1.5086,1.5117,1.5177,1.5099,1.5099,1.5113,1.5253,1.5264,1.5276,1.5171,1.5173,1.5175,1.525,0,1.4807,1.488,1.4882,1.495,1.4985,1.4975,1.5012,1.5035,1.5045,1.5078,1.509,1.5127,1.5106,1.5119,1.5149,1.5163,1.5205,1.5158,1.5207,1.5209,1.5201,1.5289,1.5301,1.5371,1.526,1.5262,1.5263,0,1.4899,1.4927,1.4998,1.5024,1.5038,1.5072,1.5106,1.5136,1.5163,1.5169,1.5193,1.519,1.5235,1.5204,1.5268,1.5235,1.5256,1.5266,1.5269,1.5274,1.524,1.5297,1.5393,1.5404,1.5279,1.5277,1.5276,0,1.4955,1.5011,1.5061,1.5076,1.5106,1.513,1.5144,1.5169,1.5191,1.5222,1.5236,1.5272,1.5292,1.532,1.5328,1.5305,1.5391,1.5361,1.5398,1.5398,1.5418,1.5416,1.5519,1.543,1.5429,1.5429,1.5429,0,1.5033,1.5077,1.5087,1.5118,1.5167,1.517,1.5219,1.5232,1.5254,1.5288,1.5282,1.5314,1.5322,1.5356,1.5363,1.5415,1.5424,1.543,1.5432,1.5431,1.5431,1.5445,1.5441,1.5432,1.5431,1.5431,1.543,0,1.5105,1.5113,1.5166,1.5191,1.5198,1.5234,1.5256,1.5286,1.5295,1.5339,1.5349,1.5365,1.5405,1.5415,1.5463,1.5468,1.553,1.5526,1.552,1.552,1.5557,1.5554,1.5673,1.569,1.5589,1.559,1.5591,0,1.5154,1.5188,1.5216,1.5238,1.5253,1.5288,1.531,1.5315,1.5338,1.5372,1.5399,1.5438,1.547,1.5535,1.5552,1.5589,1.5587,1.5626,1.5592,1.5591,1.5588,1.5587,1.5591,1.5633,1.5634,1.5635,1.5635,0,1.5242,1.5244,1.5276,1.531,1.5336,1.5363,1.5389,1.5408,1.5416,1.5443,1.5484,1.5508,1.5558,1.5598,1.5635,1.5652,1.5646,1.5646,1.5656,1.5657,1.5652,1.5656,1.5538,1.5643,1.5642,1.5642,1.5641,1.5641,1.5305,1.5334,1.5359,1.5395,1.5414,1.5439,1.5468,1.5481,1.5515,1.5554,1.5555,1.56,1.5627,1.5677,1.5695,1.5732,1.572,1.5735,1.5739,1.5743,1.5747,1.5646,1.5738,1.5738,1.5738,1.5738,1.5738,0,1.5393,1.5408,1.5441,1.5477,1.5505,1.5496,1.5524,1.5549,1.5588,1.5613,1.5644,1.5692,1.5731,1.575,1.5789,1.5814,1.5813,1.5824,1.5823,1.5827,1.5755,1.5742,1.5825,1.5825,1.5825,1.5825,1.5825,1.5825,1.5442,1.5491,1.5497,1.5557,1.5572,1.5615,1.5632,1.5655,1.5675,1.5728,1.576,1.5772,1.5795,1.5836,1.5872,1.5877,1.5892,1.5905,1.5909,1.5841,1.5832,1.5824,1.5812,1.5908,1.5908,1.5979,1.5979,1.598]},{"header":{"parameterUnit":"m.s-1","parameterCategory":1,"la1":30.2991,"la2":30.254,"lo1":-89.0895,"lo2":-89.0444,"dy":0.0017,"dx":0.0017,"nx":28,"ny":28,"refTime":"2025-03-30T03:00:00:Z","depth":0,"parameterNumber":3,"parameterNumberName":"V-component_of_WINDS"},"data":[0,0,0,0,0,0,0,0,0,0,0,0,0,0,0,0,0,0,0,0,0,0,0,0,0,0,0,0,0,0,0,0,0,0,0,0,0,0,0,0,0,0,0,0,0,0,0,0,0,0,0,0,0,0,0,0,0,0,4.2599,4.2599,0,4.263,4.263,4.2631,4.2612,4.2611,4.261,4.2609,4.2641,4.2642,4.2644,0,0,0,0,0,0,0,0,0,0,0,0,0,4.2523,4.2525,4.2599,4.2599,4.2599,4.263,4.263,4.2631,4.2612,4.2611,4.261,4.2609,4.264,4.2642,4.2644,0,0,0,0,0,0,0,0,0,0,0,0,0,4.2555,4.2525,4.2598,4.2594,4.2593,4.263,4.263,4.2631,4.2612,4.2611,4.2609,4.2608,4.264,4.2642,4.2644,4.2687,0,0,4.2652,4.2653,0,0,0,0,0,0,0,0,4.2554,4.2558,4.2594,4.2594,4.2594,4.2616,4.2615,4.265,4.2612,4.2605,4.2609,4.2607,4.2633,4.2636,4.2645,4.2689,4.269,4.2652,4.2654,4.2655,4.2656,0,0,0,0,0,0,0,4.2551,4.2557,4.2611,4.2594,4.2594,4.259,4.2593,4.2622,4.2626,4.2606,4.2604,4.2608,4.2633,4.2643,4.2646,4.2691,4.2652,4.2655,4.2656,4.2657,4.2774,4.2775,0,0,0,0,0,0,4.2549,4.2555,4.261,4.2612,4.257,4.2593,4.2596,4.261,4.2626,4.2627,4.2609,4.2607,4.2639,4.2643,4.2647,4.27,4.2655,4.2657,4.2659,4.2772,4.2774,4.2776,0,0,0,0,0,0,4.2548,4.2555,4.2609,4.2583,4.259,4.2595,4.2611,4.2611,4.2621,4.2629,4.263,4.2618,4.2638,4.2643,4.2678,4.2701,4.2659,4.2661,4.277,4.2773,4.2775,4.2805,0,0,0,0,0,0,4.2546,4.2554,4.257,4.2584,4.2591,4.2639,4.2612,4.2613,4.2625,4.2623,4.2638,4.2639,4.2638,4.2674,4.2681,4.2703,4.2663,4.2768,4.2771,4.2774,4.2802,4.2808,4.2814,0,0,0,0,0,4.2543,4.2576,4.2571,4.2578,4.2611,4.264,4.2645,4.2643,4.2627,4.2644,4.2649,4.2638,4.2697,4.2678,4.2685,4.2709,4.2767,4.2771,4.2774,4.28,4.2807,4.2814,0,0,0,0,0,0,4.2564,4.2578,4.2572,4.2611,4.2625,4.2637,4.2657,4.265,4.2669,4.2665,4.2662,4.2666,4.2703,4.2709,4.2687,4.2753,4.273,4.2735,4.2747,4.2754,4.276,4.2758,4.2665,0,0,0,0,0,4.2574,4.2596,4.2607,4.264,4.2647,4.2652,4.2664,4.2662,4.2676,4.2681,4.2689,4.2704,4.2726,4.274,4.2761,4.2803,4.2807,4.2823,4.2829,4.2834,4.2838,4.2864,4.2872,4.2787,4.2787,4.2787,0,0,4.2593,4.2603,4.2617,4.2645,4.2655,4.2679,4.2656,4.2682,4.27,4.2685,4.2719,4.2726,4.2742,4.2781,4.2799,4.2788,4.2863,4.2838,4.2842,4.2844,4.2868,4.2876,4.2883,4.279,4.2789,4.2789,0,0,4.264,4.265,4.2679,4.2691,4.2708,4.2711,4.2718,4.2732,4.2736,4.277,4.276,4.2782,4.2819,4.2832,4.2843,4.2899,4.289,4.2905,4.2935,4.296,4.2967,4.2973,4.2994,4.3002,4.291,4.291,4.291,0,4.2662,4.2697,4.2695,4.2723,4.2736,4.2725,4.2756,4.2767,4.2789,4.2799,4.2786,4.2835,4.2844,4.2888,4.2902,4.2911,4.292,4.2904,4.2966,4.2972,4.2977,4.2998,4.3006,4.2912,4.2911,4.2911,4.2911,0,4.2724,4.2749,4.2772,4.2795,4.281,4.2839,4.2843,4.2859,4.2856,4.286,4.2897,4.2908,4.2932,4.2942,4.2938,4.2986,4.2979,4.2966,4.2943,4.2987,4.3007,4.3014,4.2914,4.2914,4.2913,4.2913,0,0,4.2785,4.2808,4.2817,4.2828,4.2847,4.2867,4.2896,4.292,4.2935,4.2951,4.2977,4.301,4.2999,4.3012,4.301,4.3032,4.3078,4.3017,4.3017,4.3029,4.3133,4.3144,4.3153,4.3072,4.3074,4.3075,4.3133,0,4.2834,4.2886,4.2886,4.2934,4.2959,4.2949,4.2975,4.299,4.2996,4.3018,4.3024,4.3048,4.3031,4.3039,4.306,4.3068,4.3099,4.3063,4.3097,4.3098,4.3094,4.3163,4.3173,4.3227,4.314,4.3141,4.3142,0,4.2899,4.2919,4.297,4.2988,4.2998,4.3021,4.3045,4.3065,4.3083,4.3086,4.3102,4.3097,4.3128,4.3105,4.3149,4.3125,4.3138,4.3144,4.3147,4.315,4.3123,4.317,4.3244,4.3253,4.3154,4.3153,4.3152,0,4.2941,4.298,4.3016,4.3026,4.3047,4.3064,4.3074,4.309,4.3105,4.3126,4.3136,4.316,4.3173,4.3192,4.3195,4.3177,4.324,4.3216,4.3244,4.3245,4.3258,4.3258,4.3338,4.3265,4.3265,4.3265,4.3265,0,4.2997,4.3028,4.3035,4.3058,4.3094,4.3094,4.313,4.3138,4.3153,4.3178,4.3171,4.3194,4.3196,4.322,4.3222,4.326,4.3265,4.3269,4.327,4.3271,4.327,4.328,4.3277,4.3267,4.3267,4.3266,4.3266,0,4.3049,4.3054,4.3094,4.3111,4.3117,4.3143,4.3158,4.318,4.3186,4.3217,4.3224,4.3233,4.3262,4.3267,4.3299,4.3301,4.3347,4.3343,4.3341,4.3341,4.337,4.3368,4.346,4.3473,4.3391,4.3392,4.3393,0,4.3085,4.3109,4.313,4.3147,4.3158,4.3184,4.32,4.3202,4.3219,4.3243,4.3262,4.329,4.3313,4.3359,4.3369,4.3395,4.3392,4.3423,4.3396,4.3397,4.3395,4.3394,4.3398,4.3428,4.3429,4.343,4.343,0,4.3149,4.3151,4.3175,4.3201,4.3221,4.3241,4.3259,4.3273,4.3278,4.3298,4.3328,4.3345,4.3381,4.3409,4.3435,4.3446,4.344,4.3439,4.3447,4.3449,4.3448,4.3451,4.3357,4.3437,4.3436,4.3436,4.3435,4.3435,4.3195,4.3217,4.3237,4.3264,4.3279,4.3298,4.332,4.3329,4.3354,4.3383,4.3383,4.3416,4.3435,4.347,4.3483,4.351,4.35,4.3511,4.3514,4.3518,4.3522,4.3443,4.3514,4.3514,4.3514,4.3514,4.3513,0,4.326,4.3273,4.3298,4.3326,4.3348,4.3341,4.3362,4.3381,4.3411,4.3429,4.3452,4.3488,4.3516,4.3529,4.3557,4.3576,4.3574,4.3584,4.3583,4.3586,4.3528,4.3518,4.3585,4.3585,4.3585,4.3585,4.3585,4.3585,4.3297,4.3335,4.334,4.3387,4.3399,4.3432,4.3445,4.3463,4.3478,4.3518,4.3542,4.355,4.3568,4.3597,4.3624,4.3627,4.3639,4.365,4.3652,4.3597,4.359,4.3583,4.3574,4.3652,4.3652,4.3708,4.3709,4.3709]}]]